Flag for Spain Weather past 2 weeks in Valencia, Spain

Now
55 °F

Clear.


Feels Like: 55 °F
Forecast: 59 / 78 °F
Wind: 3 mph from Northwest

Location: Valencia / Aeropuerto

Current Time: Oct 23, 2014 at 3:59:00 AM

Latest Report: Oct 23, 2014 at 3:00 AM


Visibility: 10 mi

Pressure: 30.21 "Hg

Humidity: 88%

Dew point: 52 °F

Location of ValenciaLocation

Historic Weather in Valencia — Graph

°F

Valencia temperature yesterday

Maximum temperature yesterday: 81 °F (at 12:00 PM)
Minimum temperature yesterday: 61 °F (at 11:00 PM)
Average temperature yesterday: 72 °F

Past Weeks' High & Low Weather Summary

 TemperatureHumidityPressure
High97 °F (Oct 21, 4:00 PM)94% (Oct 18, 11:30 PM)30.24 "Hg (Oct 18, 11:30 PM)
Low55 °F (Oct 20, 8:00 AM)13% (Oct 21, 4:00 PM)29.74 "Hg (Oct 12, 3:30 PM)
Average72 °F61%29.98 "Hg
* Reported Oct 8 2:00 AM — Oct 23 2:30 AM, Valencia, Weather by CustomWeather, © 2014

Note: Actual official high and low records may vary slightly from our data, if they occured in-between our weather recording intervals... More about our weather records

Advertising

Valencia weather history for previous 24 hours

 ConditionsComfort  
Time TempWeatherWind HumidityBarometerVisibility
2:30 AM
Oct 23
57 °FPassing clouds.6 mph82%30.21 "HgN/A
2:00 AM57 °FClear.6 mph82%30.21 "Hg10 mi
1:30 AM57 °FClear.1 mph82%30.24 "Hg10 mi
1:00 AM59 °FClear.No wind82%30.24 "Hg10 mi
12:30 AM59 °FClear.3 mph77%30.24 "Hg10 mi
12:00 AM61 °FClear.3 mph77%30.24 "Hg10 mi
11:30 PM
Oct 22
61 °FClear.2 mph77%30.24 "Hg10 mi
11:00 PM61 °FClear.1 mph77%30.24 "Hg10 mi
10:30 PM63 °FClear.5 mph73%30.24 "Hg10 mi
10:00 PM63 °FClear.2 mph77%30.24 "Hg10 mi
9:30 PM68 °FClear.2 mph69%30.24 "Hg10 mi
9:00 PM68 °FClear.2 mph69%30.24 "Hg10 mi
8:30 PM68 °FClear.3 mph69%30.24 "Hg10 mi
8:00 PM70 °FPassing clouds.3 mph60%30.24 "HgN/A
7:30 PM70 °FSunny.5 mph60%30.21 "Hg10 mi
7:00 PM70 °FSunny.6 mph60%30.21 "Hg10 mi
6:30 PM72 °FSunny.6 mph50%30.21 "Hg10 mi
6:00 PM72 °FPassing clouds.8 mph53%30.18 "HgN/A
5:30 PM73 °FPassing clouds.10 mph47%30.18 "HgN/A
5:00 PM73 °FSunny.12 mph50%30.18 "Hg10 mi
4:30 PM75 °FPassing clouds.10 mph36%30.18 "HgN/A
4:00 PM75 °FPassing clouds.10 mph39%30.18 "HgN/A
3:30 PM75 °FPassing clouds.14 mph44%30.18 "HgN/A
3:00 PM75 °FSunny.14 mph44%30.18 "Hg10 mi
2:30 PM75 °FPassing clouds.15 mph44%30.18 "HgN/A
2:00 PM79 °FSunny.12 mph30%30.18 "Hg10 mi
1:30 PM81 °FPassing clouds.10 mph28%30.18 "HgN/A
1:00 PM81 °FPassing clouds.9 mph15%30.21 "HgN/A
12:30 PM81 °FSunny.6 mph16%30.21 "Hg10 mi
12:00 PM81 °FSunny.No wind23%30.21 "Hg10 mi
11:30 AM77 °FPassing clouds.5 mph26%30.21 "HgN/A
11:00 AM77 °FSunny.15 mph24%30.21 "Hg10 mi
10:30 AM73 °FSunny.18 mph36%30.21 "Hg10 mi
10:00 AM73 °FSunny.15 mph33%30.21 "Hg10 mi
9:30 AM70 °FPassing clouds.9 mph46%30.21 "HgN/A
9:00 AM70 °FPassing clouds.14 mph46%30.18 "HgN/A
8:30 AM68 °FClear.12 mph49%30.18 "Hg10 mi
8:00 AM72 °FClear.16 mph41%30.18 "Hg10 mi
7:30 AM72 °FClear.20 mph41%30.15 "Hg10 mi
7:00 AM72 °FPassing clouds.12 mph50%30.15 "HgN/A
6:30 AM72 °FClear.13 mph50%30.15 "Hg10 mi
6:00 AM70 °FPassing clouds.7 mph53%30.15 "HgN/A
5:30 AM70 °FClear.10 mph50%30.15 "Hg10 mi
5:00 AM72 °FPassing clouds.3 mph47%30.15 "HgN/A
4:30 AM70 °FPassing clouds.6 mph46%30.15 "HgN/A
4:00 AM70 °FClear.7 mph46%30.15 "Hg10 mi
3:30 AM72 °FClear.7 mph41%30.15 "Hg10 mi
Weather by CustomWeather, © 2014

See weather overviewHow to use our weather pages